Regional Weather Roundup
Issued by NWS

Home | Current Version | Previous Version | Graphics & Text | Print | Product List | Glossary On
Versions: 1 2 3 4 5 6 7 8 9 10 11 12 13 14 15 16 17 18 19 20 21 22 23 24 25 26 27 28 29 30 31 32 33 34 35 36 37 38 39 40 41 42 43 44 45 46 47 48 49 50
000
ASUS43 KMKX 220400
RWRWI

WISCONSIN REGIONAL WEATHER ROUNDUP
NATIONAL WEATHER SERVICE MILWAUKEE/SULLIVAN WI
1100 PM CDT MON JUL 21 2014

NOTE: "FAIR" INDICATES FEW OR NO CLOUDS BELOW 12,000 FEET WITH NO
SIGNIFICANT WEATHER AND/OR OBSTRUCTIONS TO VISIBILITY.

WIZ001-002-006>008-014>016-023>028-220500-
NORTHWEST WISCONSIN

CITY           SKY/WX    TMP DP  RH WIND       PRES   REMARKS
SUPERIOR ARPT  CLOUDY    69  66  89 N3        29.80F
ASHLAND        PTCLDY    80  72  76 S8        29.83F HX  84
HAYWARD        CLOUDY    79  72  79 S12G22    29.87S HX  82
SIREN          MOCLDY    81  71  72 S12G20    29.83S HX  84
RICE LAKE      CLOUDY    80  69  70 SE15      29.88F HX  82
LADYSMITH      MOCLDY    79  71  75 SE13G18   29.92F HX  82
EAU CLAIRE     NOT AVBL
MENOMONIE      CLOUDY    80  69  68 SE9G16    29.88S HX  83
NEW RICHMOND   PTCLDY    80  71  74 S12G18    29.83F HX  83
OSCEOLA        CLOUDY    82  73  74 SE12G20   29.84F HX  86
$$

WIZ003>005-009-010-017-018-220500-
NORTH CENTRAL WISCONSIN

CITY           SKY/WX    TMP DP  RH WIND       PRES   REMARKS
WOODRUFF       CLEAR     77  73  86 S8        29.96S
RHINELANDER    CLEAR     73  68  84 S7        29.99S
EAGLE RIVER    CLEAR     73  67  81 S3        29.96F
LAND O LAKES   CLEAR     74  69  83 S7        29.96F
PHILLIPS       CLOUDY    76  70  81 S9        29.95S
TOMAHAWK       MOCLDY    72  68  87 CALM      29.97S
MEDFORD        CLEAR     73  68  82 S10       29.97F
MERRILL        MOCLDY    75  69  82 S5        29.97S
$$

WIZ029-030-035-036-043>047-220500-
CENTRAL WISCONSIN

CITY           SKY/WX    TMP DP  RH WIND       PRES   REMARKS
WAUSAU         MOCLDY    75  68  78 S6        29.97R
MOSINEE        CLEAR     72  68  88 S8        29.99S
MARSHFIELD     CLEAR     75  67  76 S13       29.97F
STEVENS POINT  CLEAR     74  66  74 S7        29.99S
WAUPACA        CLEAR     76  69  77 SE5       29.98F
WAUTOMA        NOT AVBL
WISC RAPIDS    CLEAR     76  67  73 S7        29.99S
CAMP DOUGLAS   NOT AVBL
$$

WIZ011>013-019>022-031-037>040-048>050-220500-
NORTHEAST WISCONSIN

CITY           SKY/WX    TMP DP  RH WIND       PRES   REMARKS
ANTIGO         CLEAR     71  67  88 S9        30.00F
STURGEON BAY   CLEAR     70  61  73 S10       30.01F
GREEN BAY      CLEAR     72  65  78 S8        29.99F
MANITOWOC      NOT AVBL
APPLETON       CLEAR     73  66  78 VRB6      30.01S
CLINTONVILLE   CLEAR     73  66  78 S5        29.98F
OSHKOSH        CLEAR     73  68  84 S9        29.99F
$$

WIZ032>034-041-042-053>061-220500-
SOUTHWEST WISCONSIN

CITY           SKY/WX    TMP DP  RH WIND       PRES   REMARKS
LA CROSSE      CLOUDY    82  68  62 S10       29.92F HX  85
SPARTA         MOCLDY    77  65  66 SE6       29.96F
VIROQUA        FAIR      75  68  80 SE8       29.98F
BOSCOBEL       CLEAR     79  68  69 S5        29.97F HX  81
PRAIRIE DU CHI CLEAR     79  66  65 SE7       29.96F HX  81
PLATTEVILLE    FAIR      75  69  81 S8        30.01S
$$

WIZ056-057-062-063-064-067-068-220500-
SOUTH CENTRAL WISCONSIN

CITY           SKY/WX    TMP DP  RH WIND       PRES   REMARKS
BARABOO/DELLS  CLEAR     75  66  71 S7        29.99F
LONE ROCK      NOT AVBL
WATERTOWN      CLEAR     73  68  84 S5        30.02F
MADISON        CLEAR     78  68  71 S12       30.01S HX  80
MIDDLETON      FAIR      78  67  69 S6        30.01F HX  80
MONROE         CLEAR     73  68  83 S14       30.03S
JANESVILLE     CLEAR     77  64  65 S9        30.03S
$$

WIZ051-052-058>065-066-070>072-220500-
SOUTHEAST WISCONSIN

CITY           SKY/WX    TMP DP  RH WIND       PRES   REMARKS
MILWAUKEE      CLEAR     73  64  73 S7        30.03F
WAUKESHA       CLEAR     72  64  78 S3        30.05F
MILWAUKEE/TIMM CLEAR     73  63  68 S6        30.04F
RACINE         CLEAR     73  65  75 S5        30.05F
BURLINGTON     CLEAR     71  65  82 S5        30.04F
KENOSHA        CLEAR     73  66  78 S8        30.05S
FOND DU LAC    CLEAR     74  67  78 S9        30.00F
SHEBOYGAN      CLEAR     70  62  76 S5        30.02F
WEST BEND      CLEAR     70  61  73 CALM      30.03F
JUNEAU         CLEAR     74  53  47 SE10      30.04S
$$

LSZ147-162-220500-
LAKE SUPERIOR

STATION/POSITION TIME  TEMP    WIND        PRES    WAVE
                       AIR SEA DIR/SP/G            HT/PER
                 (UTC) (F)     (DEG/KT/KT) (MB)    (FT/S)
W MID LAKE BUOY  0250   53 41  140/ 10/ 10 1011.1S   0
PORT WING        0320   83     150/  5/ 15 1009.5F
SAXON HARBOR     0300           CALM  /  5 1011.2S
$$

LMZ867-665-643>646-220500-
LAKE MICHIGAN

STATION/POSITION TIME  TEMP    WIND        PRES    WAVE
                       AIR SEA DIR/SP/G            HT/PER
                 (UTC) (F)     (DEG/KT/KT) (MB)    (FT/S)
N MID LAKE BUOY  0150   64 57  210/ 17/ 21 1015.3F   3/ 5
NORTHPORT PIER   0300   70     170/  7/ 12 1015.9S
KEWAUNEE LAKESHO 0300   58     160/  5/  8 1017.3F
SHEBOYGAN LAKESH 0300   71     180/ 18/ 18 1016.7F
PORT WASHINGTON  0300   64     190/  7/ 10 1017.6
ATWATER BUOY     0300   58     170/  6     1018.0S
MILWAUKEE LAKESH 0300   61     120/  1/  2   N/A
S MID LAKE BUOY  0250   72 70  160/ 10/ 12 1017.8S   0
KENOSHA   LAKESH 0300   71     180/ 11/ 13   N/A
$$

TC  - TEMPERATURE IN CELSIUS
VSB - VISIBILITY IN STATUTE MILES
WCI - WIND CHILL INDEX
HX  - HEAT INDEX




USA.gov is the U.S. government's official web portal to all federal, state and local government web resources and services.